Regional Weather Roundup
Issued by NWS Charleston, SC

Current Version | Previous Version | Graphics & Text | Print | Product List | Glossary On
Versions: 1 2 3 4 5 6 7 8 9 10 11 12 13 14 15 16 17 18 19 20 21 22 23 24 25 26 27 28 29 30 31 32 33 34 35 36 37 38 39 40 41 42 43 44 45 46 47 48 49 50
000 ASUS42 KCHS 300727 RWRCHS REGIONAL WEATHER ROUNDUP NATIONAL WEATHER SERVICE CHARLESTON SC 300 AM EDT SUN AUG 30 2015 NOTE: "FAIR" INDICATES FEW OR NO CLOUDS BELOW 12,000 FEET WITH NO SIGNIFICANT WEATHER AND/OR OBSTRUCTIONS TO VISIBILITY. NOT ALL STATIONS ARE QUALITY CONTROLLED BY THE NATIONAL WEATHER SERVICE. USE DATA WITH CAUTION...ESPECIALLY DEWPOINT OBSERVATIONS. SCZ027-030-031-034>040-042>050-300800- ...SOUTHEAST SOUTH CAROLINA... CITY SKY/WX TMP DP RH WIND PRES REMARKS N CHARLESTON MOCLDY 74 71 91 NE5 30.09F WATERFRONT PRK N/A 78 75 90 VRB2 30.06F MOUNT PLEASANT FAIR 73 73 100 CALM 30.09S JOHNS ISLAND FAIR 75 73 94 CALM 30.08F PINOPOLIS N/A 79 70 73 VRB2 30.03S MONCKS CORNER FAIR 73 66 78 CALM 30.09F SUMMERVILLE FAIR 70 70 100 CALM 30.10S BEAUFORT MCAS CLOUDY 76 73 91 NE3 30.07F BEAUFORT ARPT FAIR 77 75 94 CALM 30.06F HILTON HEAD IS DRIZZLE 81 75 83 SE10 30.07F WALTERBORO PTSUNNY 73 68 83 CALM 30.09F ALLENDALE FAIR 73 64 73 CALM 30.08S ...SOUTHERN MIDLANDS AND PEE DEE... CITY SKY/WX TMP DP RH WIND PRES REMARKS GEORGETOWN NOT AVBL KINGSTREE NOT AVBL ORANGEBURG CLOUDY 71 61 70 NE3 30.10F BARNWELL FAIR 73 63 68 CALM 30.10F AIKEN FAIR 70 55 60 E3 30.14F MANNING FAIR 66 61 82 CALM 30.10F COLUMBIA CLOUDY 73 62 68 CALM 30.11F SUMTER CLOUDY 69 61 77 NE3 30.09F FLORENCE PTCLDY 69 63 81 CALM 30.11F MYRTLE BEACH MOCLDY 75 66 73 CALM 30.12F N MYRTLE BEACH CLOUDY 72 67 84 N3 30.10F $$ GAZ063-065-086>088-099>101-113>116-118-119-134>141-150-300800- ...SOUTHEAST GEORGIA... CITY SKY/WX TMP DP RH WIND PRES REMARKS SAVANNAH ARPT CLOUDY 75 72 90 NE6 30.07F HUNTER AAF TSTM 73 73 100 SW5G25 30.05F FOG FORT STEWART TSTM 75 73 94 E7 30.05S STATESBORO CLOUDY 71 71 100 CALM 30.07F SYLVANIA CLOUDY 73 69 89 E3 30.09F CLAXTON NOT AVBL ...CSRA...CENTRAL AND FAR SOUTHEAST GEORGIA... CITY SKY/WX TMP DP RH WIND PRES REMARKS THOMSON CLOUDY 70 69 95 CALM 30.15S AUGUSTA-BUSH LGT RAIN 69 67 93 CALM 30.09F AUGUSTA-DANIEL LGT RAIN 86 59 39 E5 30.11F SWAINSBORO FAIR 75 68 78 E3 30.09S VIDALIA CLOUDY 72 70 94 NE3 30.07F EASTMAN PTSUNNY 73 73 100 CALM 30.09F HAZLEHURST FAIR 74 74 100 CALM 30.05F ALMA CLOUDY 74 73 97 E3 30.05F WAYCROSS CLOUDY 77 77 100 SE7 30.04F JESUP LGT RAIN 75 73 94 E7 30.06F BAXLEY MOCLDY 75 73 94 E3 30.04F BRUNSWICK CLOUDY 73 72 94 CALM 30.07S SAINT SIMONS CLOUDY 77 73 87 VRB5 30.05F $$ SCZ027-028-034-036>038-045-046-048>050-GAZ119-141-300800- ...LAKE AND SUPPLEMENTAL COASTAL OBSERVATIONS... STATION/POSITION TIME TEMP WIND PRES WAVE SWELL AIR SEA DIR/SP/G HT/PER HT/PER/DIR (UTC) (F) (DEG/KT/KT) (MB) (FT/S) (FT/S/D) UPR LAKE MARION NOT AVBL WINYAH BAY 0600 80 90/ 3 1019.0 LAKE MURRAY 0600 77 CALM / 2 1019.6F ACE BASIN NERRS NOT AVBL FORT PULASKI NOT AVBL SAPELO ISLAND 0600 80 140/ 5 1018.0F $$ ANZ835-935-AMZ111-154-330-350-352-354-370-450-454-472-300800- ...C-MAN AND BUOY OBSERVATIONS... STATION/POSITION TIME TEMP WIND PRES WAVE SWELL AIR SEA DIR/SP/G HT/PER HT/PER/DIR (UTC) (F) (DEG/KT/KT) (MB) (FT/S) (FT/S/D) BUOY 41004 0650 80 85 50/ 10/ 10 1018.5F 4/11 3/11 BUOY 41008 0650 82 85 140/ 16/ 17 1017.5F 4/11 3/100/11 FOLLY BEACH CMAN 0700 81 100/ 10/ 11 1018.8F CAPERS NEARSHORE 0608 80 120/ 10/ 14 1019.1F FRIPP NEARSHORE 0600 82 110/ 12/ 14 1018.7F STATION/POSITION TIME TEMP WIND PRES WAVE SWELL AIR SEA DIR/SP/G HT/PER HT/PER/DIR (UTC) (F) (DEG/KT/KT) (MB) (FT/S) (FT/S/D) 5E ST. MARYS GA 0621 86 N/A 5/11 2/100/11 FRYING PAN BUOY 0650 80 81 70/ 8/ 10 1019.6F 5/11 5/160/11 BUOY 41025 0650 79 81 350/ 10/ 14 1018.2F 4/10 3/130/10 CAPE LOOKOUT NC 0700 74 350/ 6/ 7 1018.7F BUOY 41002 0650 83 84 220/ 8/ 10 1019.6F 5/11 5/ 80/11 BUOY 41010 0620 82 85 130/ 10/ 12 1017.6F ST AUGUSTINE FL 0700 78 84 110/ 17/ 19 1016.6F $$

USA.gov is the U.S. government's official web portal to all federal, state and local government web resources and services.